Hourly Data Report for October 04, 2017

All times are specified in Local Standard Time (LST). Add 1 hour to adjust for Daylight Saving Time where and when it is observed.

OAKPOINT MARINE
MANITOBA

50°29'58.044" N
98°02'12.030" W
249.60 m
504K0NM
71144
WOJ

Download Data

Hourly Data (October 2017)
Hourly Data Report for October 4, 2017
Temp Definition
°C
Dew Point Temp Definition
°C
Rel Hum Definition
%
Wind Dir Definition
10's deg

Wind Spd Definition
km/h
Visibility Definition
km
Stn Press Definition
kPa
Hmdx Definition


Wind Chill Definition


Weather Definition


TIME
00:00 9.3 6.1 80 28 15   98.95     LegendNANA
01:00 7.7 6.0 89 35 10   98.99     LegendNANA
02:00 9.0 7.7 92 31 24   99.03     LegendNANA
03:00 8.8 7.1 89 30 28   99.03     LegendNANA
04:00 8.7 6.9 89 30 34   99.03     LegendNANA
05:00 8.7 6.3 85 30 33   99.07     LegendNANA
06:00 8.5 6.3 86 27 25   99.05     LegendNANA
07:00 8.1 5.8 86 27 33   99.06     LegendNANA
08:00 8.1 5.3 82 26 32   99.04     LegendNANA
09:00 8.3 5.8 85 25 35   99.03     LegendNANA
10:00 8.9 5.3 78 24 40   99.01     LegendNANA
11:00 9.7 4.9 72 25 40   98.96     LegendNANA
12:00 10.9 5.0 67 25 38   98.92     LegendNANA
13:00 11.9 4.1 59 26 34   98.86     LegendNANA
14:00 12.6 4.7 59 26 29   98.80     LegendNANA
15:00 13.0 5.4 60 27 29   98.75     LegendNANA
16:00 13.3 6.5 63 27 21   98.74     LegendNANA
17:00 12.7 2.5 50 33 13   98.74     LegendNANA
18:00 11.2 4.4 63 33 8   98.77     LegendNANA
19:00 8.6 2.7 66 35 11   98.82     LegendNANA
20:00 7.2 4.0 80 35 10   98.83     LegendNANA
21:00 7.9 4.7 81 33 10   98.82     LegendNANA
22:00 8.0 4.0 76 34 13   98.85     LegendNANA
23:00 4.3 1.8 84 2 11   98.87     LegendNANA

Notes on Data Quality.

Legend

  • E = Estimated
  • M = Missing
  • NA = Not Available
  • ‡ = Partner data that is not subject to review by the National Climate Archives
Date modified: